Location: *
(50.3194°N, 7.1067°E)
Time: 09:26:22
(UTC+00:00)

SL-08 RB Rocket - Pass Details

Date: 22 September 2019
Orbit: 646 x 685 km, 97.9° (Epoch: 18 October)

Event Time Altitude Azimuth Distance (km) Brightness Sun altitude
Exits shadow 19:26:58 33° 148° (SSE) 1,145 4.5 -18.8°
Maximum altitude 19:29:00 70° 73° (ENE) 731 3.7 -19.1°
Drops below altitude 10° 19:33:40 10° 350° (N) 2,140 6.8 -19.8°
Sets 19:35:55 0° 348° (NNW) 3,056 7.7 -20.1°
